This is the latest recevied weather packets stored in our database for station/object AB4KN. If no packets are shown the sender has not sent any weather packets the latest 10 day(s).
| Time | Temp. | Humidity | Pressure | Rain* | Wind** | Luminosity | Snow |
|---|---|---|---|---|---|---|---|
| 1777477953 | 23.33° C | 76% | 1019.3 hPa | 0 mm | - | 780 W/m² | - |
| 1777477649 | 22.78° C | 76% | 1019.3 hPa | 0 mm | - | 115 W/m² | - |
| 1777477346 | 22.78° C | 75% | 1019.1 hPa | 0 mm | - | 233 W/m² | - |
| 1777477042 | 22.78° C | 78% | 1019.5 hPa | 0 mm | - | 356 W/m² | - |
| 1777476740 | 22.22° C | 77% | 1019.6 hPa | 0 mm | - | 381 W/m² | - |
| 1777476436 | 22.22° C | 77% | 1019.5 hPa | 0 mm | - | 315 W/m² | - |
| 1777476133 | 22.22° C | 78% | 1019.4 hPa | 0 mm | - | 84 W/m² | - |
| 1777475829 | 21.67° C | 78% | 1019.1 hPa | 0 mm | - | 126 W/m² | - |
| 1777475525 | 21.11° C | 81% | 1019.1 hPa | 0 mm | - | 209 W/m² | - |
| 1777475221 | 21.11° C | 81% | 1019.1 hPa | 0 mm | - | 72 W/m² | - |
| 1777474917 | 21.11° C | 81% | 1019.4 hPa | 0 mm | - | 68 W/m² | - |
| 1777474613 | 20.56° C | 83% | 1019.6 hPa | 0 mm | - | 53 W/m² | - |
| 1777474309 | 20° C | 85% | 1019.6 hPa | 0 mm | - | 54 W/m² | - |
| 1777474006 | 20° C | 85% | 1019.7 hPa | 0 mm | - | 78 W/m² | - |
| 1777473704 | 19.44° C | 87% | 1019.9 hPa | 0 mm | - | 69 W/m² | - |
| 1777473400 | 19.44° C | 87% | 1020 hPa | 0 mm | - | 70 W/m² | - |
| 1777473096 | 18.89° C | 88% | 1019.9 hPa | 0 mm | - | 62 W/m² | - |
| 1777472793 | 18.89° C | 89% | 1020 hPa | 0 mm | - | 74 W/m² | - |
| 1777472489 | 18.89° C | 89% | 1020 hPa | 0 mm | - | 77 W/m² | - |
| 1777472187 | 18.33° C | 89% | 1020.1 hPa | 0 mm | - | 95 W/m² | - |
| 1777471887 | 18.33° C | 89% | 1019.9 hPa | 0 mm | - | 64 W/m² | - |
| 1777471584 | 18.33° C | 89% | 1020.2 hPa | 0 mm | - | 74 W/m² | - |
| 1777471281 | 18.33° C | 89% | 1019.9 hPa | 0 mm | - | 75 W/m² | - |
| 1777470977 | 18.33° C | 89% | 1019.7 hPa | 0 mm | - | 56 W/m² | - |
| 1777470674 | 17.78° C | 89% | 1019.3 hPa | 0 mm | - | 55 W/m² | - |
* Rain latest hour (hover to see other rain measurements)
** Current wind speed in m/s (hover to see current wind gust speed)